User: anonymous
Location: Sperry Observatory
(40.6664°N, 74.3236°W)
Time: 12:48:14
(UTC-04:00)
Language:

UOSAT-12 - Orbit

View from above orbital plane
View from above orbital plane
View from above satellite
View from above satellite

Ground track
Ground track

The orbit data is extracted from the following two-line orbital elements,

1 25693U 99021A   14108.21998817  .00000776  00000-0  12003-3 0  4539
2 25693 064.5568 086.8399 0044635 296.4312 148.7849 14.79902744809042
Epoch (UTC): 18 April 2014 05:16:46
Eccentricity: 0.0044635
inclination: 64.5568°
perigee height: 598 km
apogee height: 661 km
right ascension of ascending node: 86.8399°
argument of perigee: 296.4312°
revolutions per day: 14.79902744
mean anomaly at epoch: 148.7849°
orbit number at epoch: 80904

The dashed part of the orbit path shows where the satellite is in the earth's shadow,  

DLR